Covington, KY

2:48 PM EST on February 18, 2018 (GMT -0500)
Cincinnati-Northern KY International

Weather History for KCVG - June, 2012

Change the Weather History Date:

Monday, June 4, 2012

  Actual Average Record
Temperature  
Mean Temperature 69 °F 69 °F  
Max Temperature 80 °F 79 °F 96 °F (1925)
Min Temperature 58 °F 59 °F 43 °F (1929)
Degree Days  
Heating Degree Days 0 1  
Month to date heating degree days 12 5  
Since 1 June heating degree days 12 5  
Since 1 July heating degree days 4015 4965  
Cooling Degree Days 4 5  
Month to date cooling degree days 6 20  
Year to date cooling degree days 209 114  
Since 1 June cooling degree days 6 20  
Growing Degree Days 18 (Base 50)    
Moisture  
Dew Point 56 °F    
Average Humidity 68    
Maximum Humidity 93    
Minimum Humidity 42    
Precipitation  
Precipitation T in 0.16 in 1.93 in (2008)
Month to date precipitation 0.85 0.61  
Year to date precipitation 17.74 19.20  
Snow  
Snow 0.00 in 0.00 in 0.00 in ()
Month to date snowfall 0.0 0.0  
Since 1 June snowfall 0.0 0.0  
Since 1 July snowfall 5.6 22.1  
Snow Depth 0.00 in    
Sea Level Pressure  
Sea Level Pressure 29.80 in    
Wind  
Wind Speed 7 mph (WNW)    
Max Wind Speed 17 mph    
Max Gust Speed 21 mph    
Visibility 10 miles    
Events      
T = Trace of Precipitation, MM = Missing Value Source: NWS Daily Summary

Daily Weather History Graph

Daily Weather History Graph

Search for Another Location

Airport or City:

Trip Planner

Search our weather history database for the weather conditions in past years. The results will help you decide how hot, cold, wet, or windy it might be!

Date:

Astronomy

Jun. 04, 2012 Rise Set
Actual Time 6:13 AM EDT 9:00 PM EDT
Civil Twilight 5:41 AM EDT 9:32 PM EDT
Nautical Twilight 5:02 AM EDT 10:12 PM EDT
Astronomical Twilight 4:16 AM EDT 10:57 PM EDT
Moon 9:29 PM EDT (6/4) 6:19 AM EDT (6/4)
Length of Visible Light 15h 50m
Length of Day
14h 47m
Full, 100% of the Moon is Illuminated
Jun 4
Full
Jun 11
Last Quarter
Jun 19
New
Jun 26
First Quarter
Jul 3
Full

Hourly Weather History & Observations

Time (EDT) Temp. Dew Point Humidity Pressure Visibility Wind Dir Wind Speed Gust Speed Precip Events Conditions
12:52 AM 66.0 °F 55.0 °F 68% 29.83 in 10.0 mi West 4.6 mph - N/A   Overcast
1:52 AM 64.9 °F 54.0 °F 68% 29.81 in 10.0 mi Calm Calm - N/A   Scattered Clouds
2:52 AM 64.0 °F 53.1 °F 67% 29.80 in 10.0 mi Calm Calm - N/A   Scattered Clouds
3:52 AM 59.0 °F 54.0 °F 83% 29.78 in 10.0 mi Calm Calm - N/A   Mostly Cloudy
4:52 AM 57.9 °F 55.0 °F 90% 29.77 in 9.0 mi Calm Calm - N/A   Mostly Cloudy
5:52 AM 60.1 °F 55.9 °F 86% 29.78 in 10.0 mi Calm Calm - N/A   Mostly Cloudy
6:52 AM 61.0 °F 55.0 °F 81% 29.80 in 10.0 mi Calm Calm - N/A   Scattered Clouds
7:52 AM 66.9 °F 54.0 °F 63% 29.80 in 10.0 mi NNW 6.9 mph - N/A   Partly Cloudy
8:52 AM 70.0 °F 54.0 °F 57% 29.81 in 10.0 mi NNW 6.9 mph - N/A   Partly Cloudy
9:52 AM 73.0 °F 54.0 °F 51% 29.81 in 10.0 mi North 8.1 mph - N/A   Mostly Cloudy
10:52 AM 73.0 °F 53.1 °F 49% 29.81 in 10.0 mi North 6.9 mph - N/A   Mostly Cloudy
11:52 AM 72.0 °F 57.0 °F 59% 29.83 in 10.0 mi West 10.4 mph - 0.00 in   Overcast
12:52 PM 72.0 °F 57.0 °F 59% 29.83 in 10.0 mi West 11.5 mph - 0.00 in   Overcast
1:52 PM 73.9 °F 57.9 °F 57% 29.82 in 10.0 mi WNW 12.7 mph - 0.00 in   Mostly Cloudy
2:52 PM 77.0 °F 55.0 °F 47% 29.81 in 10.0 mi WNW 11.5 mph 20.7 mph N/A   Mostly Cloudy
3:52 PM 78.1 °F 53.1 °F 42% 29.79 in 10.0 mi WNW 15.0 mph 19.6 mph N/A   Mostly Cloudy
4:52 PM 75.0 °F 55.9 °F 51% 29.78 in 10.0 mi WSW 11.5 mph 19.6 mph N/A   Scattered Clouds
5:52 PM 75.0 °F 57.9 °F 55% 29.78 in 10.0 mi West 12.7 mph - N/A   Scattered Clouds
6:52 PM 73.9 °F 57.9 °F 57% 29.77 in 10.0 mi West 10.4 mph - N/A   Mostly Cloudy
7:52 PM 72.0 °F 57.9 °F 61% 29.77 in 10.0 mi West 8.1 mph - N/A   Mostly Cloudy
8:52 PM 68.0 °F 59.0 °F 73% 29.78 in 10.0 mi West 6.9 mph - N/A   Scattered Clouds
9:52 PM 66.0 °F 57.9 °F 75% 29.79 in 10.0 mi Calm Calm - N/A   Partly Cloudy
10:52 PM 63.0 °F 57.0 °F 81% 29.81 in 10.0 mi Calm Calm - N/A   Partly Cloudy
11:52 PM 64.0 °F 55.9 °F 75% 29.81 in 10.0 mi ENE 8.1 mph - N/A   Clear